Welcome to the New NWS' Forecast!
Most changes are behind the scenes, but click here for differences you might notice.
Latest weather observations around

Norwood, Norwood Memorial Airport (KOWD)

Using English Units (Switch to International System of Units)
Date/ Time (EDT) Wind (mph) Vis. (mi) Weather Sky Cond. Temp (°F) Rel. Humidity Wind Chill (°F) Heat Index (°F) Pressure Precip. (in)
Air Dwpt 6 hour Altimeter (inHg) Sea level (inHg) 1 hr 3 hr 6 hr
Max Min
Aug 15 22:53 Calm 10 Clear CLR 73 69     87%   74 29.9 29.9      
Aug 15 21:53 WSW 7 10 Clear CLR 79 71     77%   82 29.89 29.89      
Aug 15 20:53 WSW 6 10 Clear CLR 81 72     74%   85 29.88 29.88      
Aug 15 19:53 WSW 3 10 Clear CLR 82 71     69%   86 29.85 29.85      
Aug 15 18:53 W 6 10 Clear CLR 85 70     61%   89 29.83 29.83      
Aug 15 17:53 W 8 10 Clear CLR 87 69     55%   91 29.83 29.82      
Aug 15 16:53 W 8 10 Mostly Clear FEW049 88 69     54%   92 29.82 29.82      
Aug 15 15:53 5 10 Partly Cloudy FEW042 SCT050 88 70     55%   93 29.82 29.82      
Aug 15 14:53 NW 7 10 Partly Cloudy FEW045 SCT060 88 69     54%   92 29.82 29.82      
Aug 15 13:53 NW 10 10 Mostly Clear FEW037 86 70     59%   91 29.83 29.83      
Aug 15 12:53 7 10 Mostly Clear FEW036 FEW042 85 70     61%   89 29.84 29.83      
Aug 15 11:53 3 10 Partly Cloudy SCT024 83 71     67%   88 29.83 29.83      
Aug 15 11:45 WNW 6 10 Mostly Clear FEW024 83 71     67%   88 29.83        
Aug 15 10:53 Calm 10 Mostly Cloudy SCT017 BKN025 80 71     74%   84 29.84 29.83      
Aug 15 10:30 3 10 Cloudy BKN015 OVC020 78 71     79%   79 29.84        
Aug 15 09:53 WNW 8 10 Cloudy OVC011 76 70     82%   77 29.84 29.83      
Aug 15 08:53 WSW 5 10 Cloudy OVC010 75 70     84%   76 29.83 29.83      
Aug 15 08:16 WSW 6 10 Cloudy OVC010 74 70     87%   75 29.82        
Aug 15 07:53 SW 6 10 Cloudy OVC009 74 70     87%   75 29.83 29.82      
Aug 15 07:49 SW 5 10 Cloudy OVC009 73 70     89%   75 29.82        
Aug 15 06:53 W 3 10 Cloudy OVC014 73 70     90%   74 29.81 29.81      
Aug 15 05:53 S 3 10 Cloudy OVC012 72 70     93%   73 29.81 29.8      
Aug 15 04:53 Calm 7 Mostly Cloudy BKN013 72 70     93%   73 29.8 29.8      
Aug 15 04:01 Calm 4 Fog/Mist BKN014 71 69     93%   72 29.8        
Aug 15 03:53 SE 3 4 Fog/Mist BKN015 71 69     93%   72 29.8 29.8      
Aug 15 03:37 Calm 5 Fog/Mist SCT009 BKN015 71 70     96%   72 29.8        
Aug 15 03:01 Calm 4 Fog/Mist BKN007 BKN018 72 70     93%   73 29.81        
Aug 15 02:53 Calm 7 Mostly Cloudy SCT007 BKN012 BKN018 71 69     93%   72 29.81 29.81      
Aug 15 02:46 Calm 2 Fog/Mist SCT007 BKN012 BKN018 71 69     93%   72 29.81        
Aug 15 02:35 Calm 1.75 Fog/Mist BKN007 OVC013 71 69     93%   72 29.81        
Aug 15 02:22 Calm 6 Fog/Mist BKN007 71 69     93%   72 29.81        
Aug 15 02:10 Calm 3 Fog/Mist SCT007 SCT013 70 68     93%     29.81        
Aug 15 01:53 Calm 7 Clear CLR 70 68     93%     29.81 29.8      
Aug 15 00:53 Calm 7 Clear CLR 72 69     91%   73 29.82 29.82      
Aug 14 23:53 Calm 10 Clear CLR 72 69     91%   73 29.83 29.83      
Aug 14 22:53 SSW 3 10 Clear CLR 72 69     91%   73 29.83 29.83      
Aug 14 21:53 S 3 10 Clear CLR 73 69     87%   74 29.83 29.83      
Aug 14 20:53 S 6 10 Clear CLR 76 69     79%   77 29.84 29.84      
Aug 14 19:53 S 5 10 Clear CLR 78 70     76%   79 29.82 29.82      
Aug 14 18:53 S 6 10 Partly Cloudy SCT030 81 70     69%   84 29.81 29.8      
Aug 14 17:53 S 8 10 Mostly Clear FEW036 84 70     63%   88 29.81 29.81      
Aug 14 16:53 S 7 10 Partly Cloudy SCT050 85 70     61%   89 29.81 29.8      
Aug 14 15:53 SSE 9 10 Partly Cloudy SCT033 SCT042 87 72     61%   94 29.81 29.81      
Aug 14 14:53 S 8 10 Partly Cloudy FEW034 SCT050 86 72     63%   92 29.84 29.84      
Aug 14 13:53 WSW 6 10 Mostly Clear FEW037 86 71     61%   92 29.85 29.85      
Aug 14 12:53 S 5 10 Partly Cloudy SCT029 SCT038 86 74     67%   94 29.87 29.86      
Aug 14 12:30 SSW 9 10 Mostly Cloudy SCT027 BKN035 84 73     70%   90 29.87        
Aug 14 11:53 7 10 Mostly Cloudy BKN021 BKN032 BKN065 84 75     74%   92 29.88 29.88      
Aug 14 11:45 SSE 7 10 Mostly Cloudy SCT020 BKN028 BKN065 83 75     77%   90 29.88        
Notice The following observation data may not be complete
Aug 14 11:17   10 Mostly Cloudy SCT016 BKN100          %              
Aug 14 11:01 SE 7 10 Mostly Cloudy SCT014 BKN019 81 75     82%   87 29.89        
Aug 14 10:53 ESE 7 10 Mostly Cloudy SCT014 BKN110 82 75     79%   89 29.89 29.89      
Aug 14 10:00 ESE 5 10 Mostly Cloudy FEW015 SCT028 BKN044 80 74     82%   85 29.9        
Aug 14 09:53 S 3 10 Mostly Cloudy FEW012 SCT017 BKN025 80 74     82%   85 29.9 29.9      
Aug 14 08:53 SSE 3 10 Mostly Cloudy FEW005 BKN020 78 75     90%   80 29.9 29.9      
Aug 14 08:38 SE 3 10 Cloudy BKN005 OVC022 77 75     94%   79 29.91        
Aug 14 08:27 SSE 3 10 Cloudy BKN004 OVC022 76 74     94%   78 29.91        
Aug 14 08:17 5 10 Cloudy OVC005 75 74     96%   77 29.91        
Aug 14 08:00 S 5 8 Cloudy OVC003 76 75     97%   78 29.92        
Aug 14 07:53 Calm 2 Fog/Mist OVC003 75 74     96%   77 29.91 29.91      
Aug 14 07:30 Calm 2 Fog/Mist OVC002 75 74     96%   77 29.91        
Aug 14 07:14 Calm 0.25 Fog VV002 74 73     97%   76 29.91        
Aug 14 06:53 Calm 0.25 Fog VV003 73 72     96%   75 29.9 29.9      
Aug 14 06:22 Calm 0.25 Fog VV003 73 72     96%   75 29.9        
Aug 14 05:53 Calm 0.25 Fog VV002 73 72     96%   75 29.9 29.9      
Aug 14 05:24 Calm 0.5 Fog VV002 73 72     96%   75 29.89        
Aug 14 05:00 Calm 0.75 Fog/Mist VV003 73 72     96%   75 29.89        
Aug 14 04:53 Calm 1 Fog/Mist VV003 73 72     96%   75 29.88 29.88      
Aug 14 04:06 Calm 1.25 Fog/Mist OVC003 73 72     96%   75 29.89        
Aug 14 03:53 N 3 0.75 Fog/Mist VV003 73 72     96%   75 29.89 29.88      
Aug 14 03:24 NE 3 1.25 Fog/Mist OVC003 73 72     96%   75 29.9        
Aug 14 02:53 Calm 1 Fog/Mist OVC002 73 72     96%   75 29.91 29.91      
Aug 14 02:25 Calm 1.75 Fog/Mist OVC002 73 73     100%   75 29.91        
Aug 14 02:20 Calm 2 Fog/Mist OVC003 73 72     96%   75 29.91        
Aug 14 01:53 NE 3 4 Fog/Mist OVC003 73 71     94%   74 29.92 29.92     0
Aug 13 23:53 Calm 7 Cloudy OVC004 73 71     94%   74 29.94 29.93      
Aug 13 21:53 NE 5 9 Light Rain BKN007 OVC010 72 70     93%   73 29.95 29.95 0    
Aug 13 21:18 NE 7 10 Cloudy OVC005 72 70     93%   73 29.96   0    
Aug 13 20:57 NE 7 3 Light Rain and Fog/Mist OVC003 71 70     96%   72 29.96   0    
Aug 13 20:51 NE 6 1.75 Rain and Fog/Mist OVC003 71 70     96%   72 29.95 29.95 0    
Aug 13 20:50 NE 6 1.75 Rain and Fog/Mist OVC003 72 70     94%   73 29.95   0    
Aug 13 20:39 NE 7 4 Light Rain and Fog/Mist OVC003 71 70     96%   72 29.95   0    
Aug 13 19:53 NE 8 2.5 Fog/Mist OVC003 71 70     96%   72 29.95 29.95 0   0
Aug 13 19:29 NE 7 1.75 Fog/Mist OVC003 71 70     96%   72 29.96        
Aug 13 19:10 ENE 8 4 Fog/Mist OVC004 72 70     93%   73 29.96        
Aug 13 18:53 NE 9 8 Cloudy OVC005 72 70     93%   73 29.95 29.95 0    
Aug 13 18:43 NE 8 8 Light Rain OVC005 72 70     93%   73 29.95   0    
Aug 13 17:53 NE 7 4 Light Rain and Fog/Mist OVC004 72 70     93%   73 29.97 29.96 0    
Aug 13 16:53 NE 9 5 Fog/Mist OVC004 72 71     97%   73 29.98 29.98 0 0  
Notice The following observation data may not be complete
Aug 13 16:39   6 Light Rain and Fog/Mist OVC004          %         0    
Notice The following observation data may not be complete
Aug 13 16:03   7 Cloudy OVC005          %              
Aug 13 15:53 NE 7 7 Cloudy OVC004 73 71     94%   74 30 29.99 0    
Aug 13 14:49 NE 9 3 Light Rain and Fog/Mist OVC003 73 71     94%   74 30.01 30.01 0    
Aug 13 14:48 NE 8 3 Light Rain and Fog/Mist OVC003 73 72     94%   75 30.01   0    
Aug 13 14:41 NE 9 1.75 Rain and Fog/Mist OVC003 73 71     94%   74 30.02   0    
Aug 13 13:53 NE 9 3 Light Rain and Fog/Mist OVC003 72 71     97%   73 30.03 30.02 0   0
Aug 13 13:36 ENE 8 3 Light Rain and Fog/Mist OVC003 72 71     97%   73 30.03   0    
Aug 13 13:26 NE 6 3 Light Rain and Fog/Mist OVC002 72 70     93%   73 30.04   0    
Aug 13 13:12 NE 6 2 Fog/Mist OVC002 72 70     93%   73 30.04        
Aug 13 13:02 NNE 7 1.5 Fog/Mist OVC003 72 70     93%   73 30.04        
Aug 13 12:53 NE 6 2 Fog/Mist OVC003 72 70     93%   73 30.04 30.04      
Aug 13 12:32 NE 8 2.5 Fog/Mist OVC003 72 70     93%   73 30.05        
Aug 13 12:23 NE 7 3 Fog/Mist OVC003 72 70     93%   73 30.05        
Aug 13 11:53 NE 9 2 Fog/Mist OVC003 72 70     93%   73 30.06 30.06      
Aug 13 10:53 NNE 5 2.5 Fog/Mist OVC003 71 70     96%   72 30.07 30.07      
Aug 13 10:49 3 2 Fog/Mist OVC003 72 70     94%   73 30.07        
Aug 13 10:35 NNE 7 1.25 Fog/Mist OVC002 71 70     96%   72 30.07        
Aug 13 10:00 ENE 7 0.75 Fog/Mist OVC002 70 69     97%     30.08        
Aug 13 08:53 NNE 8 0.5 Fog OVC002 70 69     97%     30.08 30.07      
Aug 13 08:00 NE 7 0.25 Fog VV003 69 68     96%     30.08        
Aug 13 07:53 NE 5 0.25 Fog VV002 69 68     96%     30.08 30.08      
Aug 13 06:53 ENE 3 0.25 Fog VV002 69 68     96%     30.08 30.08      
Aug 13 03:42 N 5 1.75 Fog/Mist OVC002 70 68     93%     30.08        
Aug 13 02:53 NNE 5 1.5 Fog/Mist OVC003 70 69     97%     30.08 30.08      
Aug 13 02:40 NNE 3 1.75 Fog/Mist OVC003 70 68     93%     30.08        
Aug 13 01:53 NNE 5 2 Fog/Mist OVC003 70 68     93%     30.09 30.09      
Aug 13 01:13 Calm 2.5 Fog/Mist OVC003 70 69     97%     30.1        
Aug 12 23:53 NNE 5 5 Fog/Mist OVC004 70 68     93%     30.11 30.11      
Aug 12 23:10 N 3 9 Cloudy OVC005 70 68     93%     30.11        
Aug 12 21:53 N 5 3 Fog/Mist OVC004 70 68     93%     30.11 30.1      
Aug 12 21:50 N 6 2.5 Fog/Mist OVC004 70 70     100%     30.1        
May 15 06:53 S 6 3 Fog/Mist OVC003 59 57     93%     29.85 29.85      
May 15 04:53 S 5 9 Clear   57 54     89%     29.86 29.85      
May 14 23:53 S 5 10 Clear CLR 57 53     87%     29.9 29.9      
May 14 13:53 SSW 9 10 Partly Cloudy SCT035 70 53     55%     29.93 29.93      
May 14 06:19 SSE 5 10 Cloudy BKN007 OVC030 52 49     89%     30.02        
May 13 23:53 SSE 5 10 Clear CLR 50 47     89% 48   30.08 30.07      
May 13 13:53 NNE 6 10 Mostly Cloudy BKN021 BKN026 60 49     67%     30.18 30.18      
May 13 00:53 NNE 5 6 Fog/Mist OVC006 52 49     89%     30.11 30.11      
May 12 14:15 N 3 10 Cloudy BKN009 OVC013 53 50     89%     30.14        
May 11 20:53 SSE 3 10 Clear CLR 54 32     43%     30.07 30.07      
May 11 12:53   10 Clear CLR 68 35     30%     29.96 29.96      
Jun 12 05:53 Calm 10 Clear CLR 69 65     87%     29.96 29.96      
Jun 10 22:53 SSW 7 10 Clear   73 56     55%   73 29.99 29.99      
Jun 10 15:53 S 13 10 Clear CLR 83 55     38%   82 29.91 29.91      
Jun 08 08:53 Calm 10 Clear CLR 66 55     68%     30.04 30.04      
Jun 07 22:53 Calm 10 Clear CLR 52 50     93%     30.02 30.02      
Jun 07 11:53 NE 8 10 Cloudy OVC075 64 50     60%     29.96 29.96      
Jun 06 13:35 NNE 14 6 Light Rain and Fog/Mist SCT009 SCT018 OVC039 49 47     93% 44   29.83   0    
Jun 06 11:53 NE 11 1.25 Light Rain and Fog/Mist BKN007 OVC014 50 48     93% 46   29.84 29.83 0    
Notice The following observation data may not be complete
Jun 06 05:05   1.75 Fog/Mist OVC006          %              
Jun 05 21:53 ENE 9 2.5 Light Rain and Fog/Mist OVC006 54 53     97%     29.84 29.83 0    
Jun 05 18:53 ENE 8 1.75 Fog/Mist OVC006 55 53     93%     29.83 29.82